Content
SEND FEEDBACK

Daily
Averages
Monthly
Summary
United States of America

FORT LEE, NEW JERSEY


Home > North America > United States > New Jersey
Elevation: 128 feet     Latitude: 40 46N     Longitude: 073 58W

WEATHER
 
SELECT A DAY
Number of Records: 148,014;   Date Range: 11/1/95 - 7/22/14
 
SHARE

PRINT THIS DATA

[ ← Previous Day ]
WEATHER ALMANAC - JULY 18, 2013
[ Next Day → ]
[ °C ]   °F
Weather ElementAverageHighLow
Temperature89.4 °F97 °F (1:51 pm)82 °F (3:51 am)
Dewpoint68.7 °F72 °F (8:51 am)66 °F (1:51 pm)
Humidity51.6 %65 % (3:51 am)36 % (1:51 pm)
Barometer30.01 in30.06 in (1:51 am)29.96 in (5:51 pm)
Wind Speed3.8 mph5.8 mph (6:51 am)
Weather ElementAverage
Visibility8.3 mi
Wind DirectionENE (83 °)

Weather ElementTotal
Precipitation---
Cooling Degree Days24.5 (Base 65)
Growing Degree Days39.5 (Base 50)
Averaged from 23 records on July 18, 2013
WEATHER CONDITIONS BREAKOUT
WIND DIRECTION BREAKOUT
WEATHER BY HOUR - JULY 18, 2013
[ °C ]   °F
Local TimeTemperatureDewpointHumidityBarometerVisibilityWind DirectionWind SpeedGust SpeedPrecipitationEventsConditions
1:51 AM82.9 °F69.1 °F63 %30.06 in8.0 miVariable4.6 mphClear
2:51 AM82.9 °F69.1 °F63 %30.03 in8.0 miWSW (250°)4.6 mphClear
3:51 AM82.0 °F69.1 °F65 %30.03 in8.0 miWest (260°)3.5 mphClear
4:51 AM82.0 °F69.1 °F65 %30.03 in8.0 miCalmClear
5:51 AM82.9 °F69.1 °F63 %30.03 in7.0 miVariable3.5 mphClear
6:51 AM82.0 °F69.1 °F65 %30.04 in6.0 miVariable5.8 mphHaze
7:51 AM84.0 °F70.0 °F63 %30.05 in6.0 miVariable5.8 mphHaze
8:51 AM84.9 °F72.0 °F65 %30.05 in6.0 miCalmHaze
9:51 AM88.0 °F72.0 °F59 %30.05 in7.0 miVariable5.8 mphClear
10:51 AM91.0 °F71.1 °F52 %30.04 in8.0 miVariable3.5 mphClear
11:51 AM93.9 °F70.0 °F46 %30.04 in9.0 miWest (280°)5.8 mphClear
12:51 PM96.1 °F68.0 °F40 %30.03 in9.0 miWest (280°)4.6 mphClear
1:51 PM97.0 °F66.0 °F36 %30.01 in9.0 miNW (310°)5.8 mphPartly Cloudy
2:51 PM97.0 °F66.9 °F37 %29.99 in9.0 miVariable4.6 mphClear
3:51 PM96.1 °F66.0 °F37 %29.98 in9.0 miNorthClear
4:51 PM95.0 °F66.0 °F38 %29.97 in9.0 miCalmClear
5:51 PM93.9 °F66.0 °F40 %29.96 in9.0 miVariable5.8 mphClear
6:51 PM93.0 °F68.0 °F44 %29.97 in9.0 miVariable4.6 mphClear
7:51 PM93.0 °F66.0 °F41 %29.98 in9.0 miWest (270°)5.8 mphClear
8:51 PM91.0 °F68.0 °F47 %29.98 in10.0 miWest (260°)3.5 mphClear
9:51 PM90.0 °F69.1 °F50 %29.98 in10.0 miCalmClear
10:51 PM90.0 °F70.0 °F52 %29.97 in9.0 miVariable3.5 mphClear
11:51 PM88.0 °F70.0 °F55 %29.96 in9.0 miVariable3.5 mphClear
Hourly data recorded from KNYC, located miles away from Fort Lee, New Jersey







STORIES FROM OUR PARTNERS